DELTA 1 DEB, 10711

Orbit data source: Space-Track

DELTA 1 DEB, 10711 is space debris in SSO originally from a launch on Thu, 29 Jul 1976 UTC launched from the Air Force Western Test Range (AFWTR). Debris objects in space refer to the collection of defunct objects orbiting the Earth. Examples of debris include non-operational satellites, rocket bodies, and fragments generated from explosions, collisions, or faulty payload assembly.

Loading next visibility...
Identifier
10711, 1976-077AG
Orbit
SSO
Country
Flag of USUS
Related business
Manufacturer
Unknown
Mission
Spacecraft
Bus & Motor
Unknown
Mass
Unknown
Launch date (UTC)
1976-07-29 (50 years ago)
Launch vehicle
Unknown
Launch site
Air Force Western Test Range (AFWTR)
Object type
Payload
Rocket body
Debris
Shape & HBR
Unknown shape, 0.1 m
Radar Cross Section
Medium (>0.1 m² and <1 m²)

Expand to show TLE details & history
Last TLE update: 12 hours ago

TLE from 12 hours ago
0 DELTA 1 DEB
1 10711U 76077AG  26171.15952676 -.00000038  00000-0  64930-4 0  9993
2 10711 102.4902 155.8047 0063870  71.0951  63.9189 12.29246565239098
Epoch: 2026-06-20T03:49Z
TLE epoch observation values (Epoch: 2026-06-20T03:49:43.112Z)
Latitude
43.10199°
Longitude
21.9022°
Altitude
1,536.588 km
Speed
7.112 km/s
True Right ascension
23h 10m 50s
True Declination
42° 56' 50"
Sunlit
Object was in daylight at epoch
Visualization orbit readout
Latitude
Unknown
Longitude
Unknown
Altitude
Unknown
Speed
Unknown
Apparent Right ascension
Unknown
Apparent Declination
Unknown
Sunlit
N/A
Visualization observer readout
Local Sidereal Time
03:13:39
Azimuth
Unknown
Elevation
Unknown
Doppler factor
Unknown
Orbital elements
Apogee altitude
1,600.776 km
Perigee altitude
1,499.5 km
Semi-major axis
7,928.275 km
Eccentricity
0.00639
Inclination
102.4902°
RAAN
155.8047°
Arg. of periapsis
71.0951°
True anomaly
64.57857°
Mean anomaly
63.9189°
Eccentric anomaly
64.2485°
Mean motion
3.0745 °/min
Orbital period
117.09 mins
BSTAR
0.00006493
Loading maneuver chart data...
Computing Atmospheric mass density...
Loading historical data...
Loading historical data...
Loading historical data...
Loading historical data...
Loading historical data...
Loading historical data...
Loading historical data...

Documentation

Showing up to 5 results
|